sat.trackr.live / text

‹ back to catalog

STARLINK-33941

NORAD 63765 · 2025-089Q

PAYLOAD ACTIVE UNKNOWN

§ Identity

Operator
Country
US
Launch date
2025-04-29
Launch site
AFETR
Launch vehicle
Mass (kg)
RCS (m²)

Purposes: comms

External: N2YO · Heavens-Above · Gunter

§ Orbital elements

Epoch: 2026-09-20T09:31:05.683584Z

Period
94.27 min
Inclination
43.0034°
Eccentricity
0.0001234
Mean motion
15.27585248 rev/d
Perigee alt
482.2 km
Apogee alt
483.9 km
Semi-major
6,861.2 km
B*
3.8647e-4
RAAN
25.7873°
Arg perigee
234.4518°
Mean anomaly
125.6218°
Rev number
7,872

§ Raw data

STARLINK-339411 63765U 25089Q   26263.39659356  .00010389  00000+0  38647-3 0  99972 63765  43.0034  25.7873 0001234 234.4518 125.6218 15.27585248 78728

JSON: /api/v1/satellites/63765 · /tle

For live sub-satellite position, see the globe view (requires WebGL).

§ Visibility from observer

Set your observer location to see the next 7 days of passes ≥ 10°. The values pass through the URL so the page stays shareable.

No JS? Fill the form by hand. The geolocation button needs JavaScript.